CW1923 Weather Reports


time (UTC)temp
C
wind
direction
speed
KPH
gust
KPH
rain 1hr
cm
rain 24hr
cm
rain mn
cm
humidity
%
barometer
mb
20260506203905 11 93 0.0 0.0 0.00 0.15 0.10 79 1012.1
20260506202905 11 93 3.2 11.3 0.00 0.18 0.10 80 1012.1
20260506202406 11 93 3.2 11.3 0.00 0.18 0.10 80 1012.0
20260506201404 11 145 0.0 6.4 0.00 0.18 0.10 81 1011.8
20260506195906 11 146 3.2 8.0 0.00 0.18 0.10 81 1011.7
20260506195404 11 146 3.2 8.0 0.00 0.18 0.10 81 1011.7
20260506194907 11 147 0.0 8.0 0.00 0.18 0.10 81 1011.6
20260506194404 11 147 0.0 8.0 0.00 0.18 0.10 81 1011.7
20260506193907 11 147 0.0 8.0 0.00 0.18 0.10 81 1011.8
20260506192838 11 148 3.2 17.7 0.03 0.18 0.10 80 1011.6
20260506192335 11 147 3.2 17.7 0.03 0.18 0.10 80 1011.5
20260506191333 11 25 0.0 6.4 0.03 0.18 0.10 79 1011.5
20260506190330 11 118 3.2 11.3 0.03 0.18 0.10 78 1011.3
20260506185832 11 118 3.2 17.7 0.03 0.18 0.10 78 1011.2
20260506185333 11 84 3.2 17.7 0.03 0.18 0.10 78 1011.3
20260506184824 11 81 3.2 6.4 0.03 0.18 0.10 77 1011.1
20260506184324 11 81 3.2 8.0 0.03 0.18 0.10 77 1011.1
20260506183822 11 81 3.2 8.0 0.03 0.18 0.10 75 1011.1
20260506183323 11 6 3.2 8.0 0.00 0.15 0.08 74 1011.1
20260506182816 12 25 3.2 8.0 0.00 0.15 0.08 74 1011.0
20260506182312 12 25 6.4 11.3 0.00 0.15 0.08 73 1011.0
20260506181812 12 25 6.4 11.3 0.00 0.15 0.08 72 1010.9
20260506181309 12 25 6.4 14.5 0.00 0.15 0.08 72 1010.8
20260506180309 12 323 3.2 22.5 0.00 0.15 0.08 70 1010.6
20260506175804 12 25 3.2 22.5 0.00 0.15 0.08 70 1010.6
20260506174805 12 79 6.4 17.7 0.00 0.15 0.08 69 1010.5
20260506174304 12 105 3.2 11.3 0.00 0.15 0.08 69 1010.4
20260506173804 13 5 3.2 8.0 0.00 0.15 0.08 68 1010.2
20260506173304 13 1 6.4 8.0 0.00 0.15 0.08 67 1010.2
20260506172804 13 11 6.4 14.5 0.00 0.15 0.08 66 1010.2
20260506172306 13 19 6.4 14.5 0.00 0.15 0.08 66 1010.2
20260506171804 13 345 6.4 14.5 0.00 0.15 0.08 65 1010.1
20260506170802 14 84 3.2 11.3 0.00 0.15 0.08 64 1010.0
20260506165806 14 124 3.2 11.3 0.00 0.15 0.08 63 1009.8
20260506165305 14 112 6.4 19.3 0.00 0.15 0.08 64 1009.8
20260506164804 14 47 6.4 19.3 0.00 0.15 0.08 65 1009.7
20260506164305 13 12 6.4 11.3 0.00 0.15 0.08 65 1009.7
20260506163305 14 12 3.2 14.5 0.00 0.15 0.08 65 1009.5
20260506162804 14 12 3.2 11.3 0.00 0.15 0.08 65 1009.4
20260506161805 14 349 3.2 17.7 0.00 0.15 0.08 67 1009.4
20260506161303 14 72 3.2 6.4 0.00 0.15 0.08 68 1009.4
20260506160803 14 72 3.2 8.0 0.00 0.15 0.08 69 1009.4
20260506160304 14 54 3.2 8.0 0.00 0.15 0.08 68 1009.5
20260506155805 14 56 3.2 8.0 0.00 0.15 0.08 68 1009.4
20260506155306 14 56 3.2 8.0 0.00 0.15 0.08 68 1009.3
20260506154806 14 55 3.2 8.0 0.00 0.15 0.08 67 1009.4
20260506154306 14 339 3.2 8.0 0.00 0.15 0.08 67 1009.4
20260506153303 15 16 3.2 11.3 0.00 0.15 0.08 67 1009.3
20260506152803 15 95 3.2 17.7 0.00 0.15 0.08 67 1009.3
20260506152306 15 16 3.2 17.7 0.00 0.15 0.08 66 1009.2
20260506151304 15 105 3.2 11.3 0.00 0.18 0.08 65 1009.2
20260506150305 15 61 0.0 6.4 0.00 0.18 0.08 64 1009.2
20260506145804 15 61 3.2 8.0 0.00 0.18 0.08 65 1009.2
20260506145305 15 61 3.2 8.0 0.00 0.18 0.08 65 1009.2
20260506144803 15 74 3.2 6.4 0.00 0.18 0.08 66 1009.1
20260506144303 15 60 3.2 8.0 0.00 0.18 0.08 65 1009.1
20260506143803 15 61 3.2 8.0 0.00 0.18 0.08 64 1009.2
20260506143302 15 59 3.2 8.0 0.00 0.18 0.08 64 1009.1
20260506142747 15 62 6.4 8.0 0.00 0.18 0.08 63 1009.1
20260506141747 15 77 3.2 11.3 0.00 0.18 0.08 63 1009.1
20260506141246 15 4 3.2 11.3 0.00 0.18 0.08 63 1009.1
20260506140246 15 14 3.2 11.3 0.00 0.18 0.08 63 1009.1
20260506135742 16 35 6.4 14.5 0.00 0.18 0.08 62 1009.1
20260506135241 16 128 6.4 14.5 0.00 0.18 0.08 62 1009.1
20260506134741 16 359 3.2 11.3 0.00 0.18 0.08 63 1009.0
20260506134236 16 1 3.2 11.3 0.00 0.18 0.08 62 1009.0
20260506133737 16 5 6.4 11.3 0.00 0.18 0.08 61 1009.0
20260506133236 16 53 6.4 8.0 0.00 0.18 0.08 62 1009.1
20260506132737 15 79 6.4 11.3 0.00 0.18 0.08 65 1009.1
20260506132248 15 358 6.4 11.3 0.00 0.18 0.08 66 1009.0
20260506131737 15 60 6.4 11.3 0.00 0.18 0.08 66 1009.0
20260506131234 15 355 6.4 11.3 0.00 0.18 0.08 65 1009.0
20260506130734 15 20 6.4 11.3 0.00 0.18 0.08 66 1009.0
20260506125733 15 16 3.2 8.0 0.00 0.18 0.08 68 1008.9
20260506124733 14 56 3.2 8.0 0.00 0.18 0.08 70 1008.9
20260506123731 14 52 0.0 8.0 0.00 0.18 0.08 71 1009.0
20260506123230 13 48 3.2 8.0 0.00 0.18 0.08 71 1009.0
20260506122732 13 48 3.2 8.0 0.00 0.18 0.08 71 1009.0
20260506122233 14 129 3.2 6.4 0.00 0.18 0.08 72 1008.9
20260506121731 14 141 3.2 8.0 0.00 0.18 0.08 72 1008.9
20260506121229 14 64 6.4 11.3 0.00 0.18 0.08 71 1008.9
20260506120729 15 359 3.2 11.3 0.00 0.18 0.08 72 1008.9
20260506120225 14 337 3.2 11.3 0.00 0.18 0.08 74 1008.9
20260506115726 14 359 3.2 11.3 0.00 0.18 0.08 74 1008.8
20260506115223 14 106 3.2 8.0 0.00 0.18 0.08 74 1008.9
20260506114717 14 56 3.2 8.0 0.00 0.18 0.08 74 1008.8
20260506114218 14 119 3.2 8.0 0.00 0.18 0.08 74 1008.8
20260506113720 14 42 3.2 8.0 0.00 0.18 0.08 74 1008.8
20260506113219 14 30 3.2 8.0 0.00 0.18 0.08 75 1008.8
20260506111716 14 62 6.4 17.7 0.00 0.20 0.08 75 1008.8
20260506111209 14 6 6.4 17.7 0.00 0.20 0.08 74 1008.7
20260506110710 15 74 3.2 14.5 0.00 0.20 0.08 74 1008.7
20260506110210 15 44 3.2 11.3 0.00 0.20 0.08 75 1008.8
20260506105709 15 59 3.2 14.5 0.00 0.20 0.08 77 1008.8
20260506105205 14 18 6.4 14.5 0.00 0.20 0.08 77 1008.8
20260506104706 14 52 3.2 11.3 0.00 0.20 0.08 80 1008.8
20260506104206 13 352 6.4 14.5 0.00 0.20 0.08 80 1008.9
20260506103709 13 43 6.4 14.5 0.00 0.20 0.08 80 1009.0
20260506103208 13 353 3.2 14.5 0.00 0.20 0.08 83 1008.8
20260506102705 13 25 3.2 11.3 0.00 0.20 0.08 85 1008.8
20260506102205 13 7 3.2 11.3 0.00 0.20 0.08 87 1008.8
20260506101703 13 3 3.2 11.3 0.00 0.20 0.08 88 1008.8
20260506100659 12 43 3.2 8.0 0.00 0.20 0.08 92 1008.9
20260506100158 12 49 3.2 8.0 0.00 0.20 0.08 94 1008.8
20260506095659 11 49 3.2 8.0 0.00 0.20 0.08 95 1008.7
20260506094650 11 49 3.2 8.0 0.00 0.20 0.08 96 1008.7
20260506094149 11 49 3.2 8.0 0.00 0.20 0.08 96 1008.7
20260506093147 11 48 0.0 8.0 0.00 0.20 0.08 97 1008.6
20260506092646 11 55 0.0 6.4 0.00 0.20 0.08 97 1008.7
20260506092138 11 56 0.0 6.4 0.00 0.20 0.08 97 1008.7
20260506091635 10 56 3.2 8.0 0.00 0.20 0.08 97 1008.7
20260506091133 10 54 0.0 8.0 0.00 0.20 0.08 97 1008.6
20260506090631 10 56 3.2 8.0 0.00 0.20 0.08 97 1008.6
20260506090132 10 56 3.2 8.0 0.00 0.20 0.08 97 1008.6
20260506085132 10 60 0.0 6.4 0.00 0.20 0.08 98 1008.6
20260506084633 10 60 0.0 6.4 0.00 0.20 0.08 97 1008.5
20260506083632 10 60 0.0 0.0 0.00 0.20 0.08 97 1008.5
20260506083132 10 61 0.0 0.0 0.00 0.20 0.08 97 1008.5
20260506082633 10 62 0.0 0.0 0.00 0.20 0.08 97 1008.4
20260506082131 10 62 0.0 0.0 0.00 0.20 0.08 97 1008.4
20260506081132 10 53 0.0 0.0 0.00 0.20 0.08 97 1008.4
20260506080618 10 55 0.0 0.0 0.00 0.20 0.08 98 1008.5
20260506080116 9 56 0.0 0.0 0.00 0.20 0.08 97 1008.5
20260506073108 9 56 0.0 0.0 0.00 0.20 0.08 97 1008.3
20260506072105 9 93 0.0 3.2 0.00 0.20 0.08 97 1008.2
20260506071104 9 72 0.0 6.4 0.00 0.20 0.08 97 1008.2
20260506070603 9 74 0.0 6.4 0.00 0.20 0.08 97 1008.3
20260506070109 9 68 0.0 3.2 0.00 0.20 0.08 97 1008.3
20260506062023 8 62 3.2 6.4 0.00 0.20 0.08 97 1008.1
20260506061513 8 77 0.0 6.4 0.00 0.20 0.08 97 1008.1
20260506060505 8 320 0.0 6.4 0.00 0.20 0.08 97 1008.1
20260506050438 8 21 0.0 8.0 0.00 0.20 0.08 96 1007.9
20260506044939 8 21 0.0 6.4 0.00 0.20 0.08 96 1007.9
20260506043934 8 18 0.0 6.4 0.00 0.20 0.08 96 1007.9
20260506043433 8 18 0.0 8.0 0.00 0.20 0.08 96 1007.9
20260506042936 8 18 3.2 11.3 0.00 0.20 0.08 96 1007.9
20260506042431 8 25 3.2 11.3 0.00 0.20 0.08 96 1007.9
20260506041932 8 39 0.0 8.0 0.00 0.20 0.08 96 1007.9
20260506041434 8 7 0.0 6.4 0.00 0.20 0.08 96 1008.0
20260506040935 8 7 0.0 6.4 0.03 0.20 0.08 96 1007.9
20260506040433 8 7 0.0 6.4 0.03 0.20 0.08 96 1007.9
20260506035431 8 9 0.0 6.4 0.03 0.20 0.08 96 1008.0
20260506034431 8 10 0.0 11.3 0.03 0.20 0.08 96 1008.0
20260506033930 8 349 0.0 6.4 0.03 0.20 0.08 96 1007.9
20260506033432 8 349 0.0 6.4 0.03 0.20 0.08 96 1008.0
20260506032930 8 349 0.0 6.4 0.03 0.20 0.08 96 1008.0
20260506032432 8 349 0.0 6.4 0.03 0.20 0.08 96 1007.9
20260506031912 8 349 0.0 3.2 0.03 0.20 0.08 96 1008.0
20260506030907 8 349 0.0 6.4 0.00 0.18 0.05 96 1008.1
20260506030408 8 15 0.0 6.4 0.00 0.18 0.05 96 1008.1
20260506025909 8 357 0.0 6.4 0.00 0.18 0.05 96 1008.2
20260506025405 8 357 0.0 6.4 0.00 0.18 0.05 96 1008.2
20260506024905 8 357 0.0 6.4 0.00 0.18 0.05 96 1008.2
20260506024405 8 357 0.0 6.4 0.00 0.18 0.05 96 1008.2
20260506023904 8 357 0.0 6.4 0.00 0.18 0.05 96 1008.3
20260506022850 8 357 0.0 3.2 0.00 0.18 0.05 96 1008.3
20260506022336 8 357 0.0 3.2 0.00 0.18 0.05 96 1008.3
20260506021337 8 357 0.0 6.4 0.00 0.18 0.05 96 1008.3
20260506020324 8 357 0.0 6.4 0.00 0.18 0.05 96 1008.3
20260506015318 8 357 0.0 6.4 0.00 0.18 0.05 96 1008.4
20260506014808 8 349 0.0 0.0 0.00 0.18 0.05 96 1008.3
20260506014307 8 349 0.0 3.2 0.00 0.18 0.05 96 1008.3
20260506013805 8 349 0.0 6.4 0.00 0.18 0.05 96 1008.4
20260506013306 8 348 0.0 6.4 0.00 0.18 0.05 96 1008.4
20260506012806 8 345 3.2 6.4 0.03 0.18 0.05 96 1008.4
20260506012307 9 347 3.2 8.0 0.03 0.18 0.05 96 1008.4
20260506011804 9 345 0.0 8.0 0.03 0.18 0.05 96 1008.4
20260506010805 9 330 0.0 0.0 0.03 0.18 0.05 96 1008.4
20260506010305 9 330 0.0 0.0 0.03 0.18 0.05 97 1008.4
20260506005806 9 330 0.0 0.0 0.03 0.18 0.05 97 1008.5
20260506005305 9 330 0.0 6.4 0.03 0.18 0.05 97 1008.5
20260506004805 9 330 0.0 6.4 0.03 0.18 0.05 97 1008.6
20260506004304 9 330 0.0 3.2 0.03 0.18 0.05 97 1008.6
20260506003802 9 330 0.0 3.2 0.03 0.18 0.05 97 1008.6
20260506003302 9 330 0.0 6.4 0.03 0.18 0.05 97 1008.7
20260506002749 9 330 0.0 6.4 0.03 0.15 0.05 97 1008.7
20260506002241 9 329 0.0 6.4 0.03 0.15 0.05 97 1008.7
20260506001740 9 329 0.0 6.4 0.03 0.15 0.05 97 1008.8
20260506001240 9 329 0.0 6.4 0.03 0.15 0.05 97 1008.8
20260506000733 9 328 0.0 6.4 0.03 0.15 0.05 97 1008.8
20260505235734 9 326 0.0 3.2 0.03 0.15 0.05 97 1008.9
20260505234231 9 322 0.0 3.2 0.03 0.15 0.05 97 1008.9
20260505233230 10 322 0.0 3.2 0.03 0.15 0.05 97 1008.9
20260505232731 10 322 0.0 3.2 0.00 0.15 0.03 97 1009.0
20260505231734 10 322 0.0 0.0 0.03 0.15 0.03 97 1009.0
20260505231232 10 322 0.0 0.0 0.03 0.15 0.03 97 1009.0
20260505230734 10 322 0.0 0.0 0.03 0.15 0.03 97 1009.1
20260505230230 10 322 0.0 3.2 0.03 0.18 0.03 97 1009.1
20260505225731 10 322 0.0 3.2 0.03 0.18 0.03 97 1009.2
20260505224731 10 322 0.0 3.2 0.05 0.20 0.03 97 1009.2
20260505224233 10 322 0.0 3.2 0.05 0.23 0.03 97 1009.3
20260505223731 10 322 0.0 3.2 0.05 0.23 0.03 97 1009.3
20260505223233 10 322 0.0 3.2 0.05 0.23 0.03 97 1009.3
20260505222734 10 322 0.0 3.2 0.05 0.23 0.03 97 1009.2
20260505222233 10 322 0.0 3.2 0.05 0.25 0.03 97 1009.3
20260505221733 10 318 0.0 6.4 0.05 0.25 0.00 97 1009.2
20260505221233 10 318 0.0 6.4 0.05 0.28 0.00 97 1009.2
20260505220733 10 318 3.2 6.4 0.05 0.30 0.00 97 1009.3
20260505220234 10 311 0.0 6.4 0.05 0.30 0.00 97 1009.3
20260505215735 11 0 0.0 0.0 0.05 0.33 0.28 97 1009.4
20260505215232 11 0 0.0 0.0 0.05 0.30 0.28 97 1009.3
20260505214733 10 0 0.0 0.0 0.05 0.30 0.28 97 1009.4
20260505214233 11 0 0.0 0.0 0.05 0.30 0.28 97 1009.4
20260505213731 10 0 0.0 0.0 0.03 0.28 0.25 97 1009.4
20260505213230 11 0 0.0 0.0 0.05 0.28 0.25 97 1009.5
20260505212233 11 0 0.0 0.0 0.05 0.30 0.25 97 1009.5
20260505211734 11 0 0.0 0.0 0.05 0.30 0.25 97 1009.4
20260505211220 11 0 0.0 0.0 0.05 0.30 0.25 97 1009.4
20260505210715 11 0 0.0 0.0 0.03 0.28 0.23 97 1009.4
20260505210210 11 0 0.0 0.0 0.03 0.28 0.23 97 1009.4
20260505205706 11 0 0.0 0.0 0.03 0.28 0.23 97 1009.5
20260505205212 11 0 0.0 0.0 0.03 0.28 0.23 97 1009.5
20260505204705 11 0 0.0 0.0 0.03 0.28 0.23 97 1009.4
20260505204203 11 0 0.0 0.0 0.03 0.28 0.23 97 1009.4